Tracking 19283 objects as of 17-Nov-2018
HD Live streaming from Space Station
objects crossing your sky now

COSMOS 650

Track COSMOS 650 now!
10-day predictions
COSMOS 650 is classified as:


NORAD ID: 7281
Int'l Code: 1974-028A
Perigee: 1,375.1 km
Apogee: 1,406.9 km
Inclination: 74.0 °
Period: 113.4 minutes
Semi major axis: 7761 km
RCS: 3.562 m2 (large)
Launch date: April 29, 1974
Source: Commonwealth of Independent States (former USSR) (CIS)
Launch site: PLESETSK MISSILE AND SPACE COMPLEX (PKMTR)
aabbcc
Your satellite tracking list
Your tracking list is empty




NASA's NSSDC Master Catalog

Two Line Element Set (TLE):
1  7281U 74028A   18320.62097882 -.00000024 +00000-0 -37684-4 0  9995
2  7281 074.0454 045.4473 0020462 065.7008 039.1184 12.69528220064688
Source of the keplerian elements: AFSPC